Terug naar catalogus

FREGAT R/B

ActiefHEO
NORAD 41555·ROCKET BODY·🇷🇺 Russia

Gelanceerd May 29, 2016 vanaf Plesetsk Cosmodrome

Loading…

Volgende Passages (komende 24 uur)

TLE

VersSource: Space-Track

Epoch: Sep 13, 2026, 20:04 UTC

1 41555U 16032B   26256.83661522  .00000018  00000-0  00000-0 0  9995
2 41555  63.7041 194.2000 0080540 118.0118 242.7994  2.08091433 78244

Volg FREGAT R/B in realtime met AllMySat

Download on the App Store